SBIRS GEO-4 (USA 282)

Last updated on Oct. 27, 2019, 4:21 a.m. UTC

1 43162U 18009A   19299.41674147 -.00000314  00000-0  00000+0 0  9996
2 43162   5.4043 317.7894 0002169 251.3002 114.4516  1.00270949  6510
UTC
Height (km)
Latitude
Longitude
Inclination
Orbital Period
UTC large
Height (km)
Speed (km/s)
/
Latitude / Longitude
Inclination (degrees)
Orbital Period (minutes)
Azimuth
Elevation
Range (km)
Doppler Factor
iOS Compass Heading
iOS Angle

Next 30 passes for location: Hong Kong

Rise time Rise Azimuth (degrees) Set time Set Azimuth (degrees) Duration Max altitude (degrees)

No matching passes for this satellites